Regional Weather Roundup
Issued by NWS

Home | Current Version | Previous Version | Text Only | Print | Product List | Glossary Off
Versions: 1 2 3 4 5 6 7 8 9 10 11 12 13 14 15 16 17 18 19 20 21 22 23 24 25 26 27 28 29 30 31 32 33 34 35 36 37 38 39 40 41 42 43 44 45 46 47 48 49 50

362
ASUS45 KABQ 220101
RWRNM
NEW MEXICO REGIONAL WEATHER ROUNDUP
NATIONAL WEATHER SERVICE ALBUQUERQUE NM
700 PM MDT SAT OCT 21 2017

NOTE: "FAIR" MEANS FEW OR NO CLOUDS BELOW 12,000 FEET AGL WITH NO
       SIGNIFICANT WEATHER OR OBSTRUCTIONS TO VISION.

      THIS PRODUCT IS RELEASED AS TWO VERSIONS.  ONE VERSION NEAR
      THE TOP OF THE HOUR CONTAINING PRELIMINARY DATA FROM ALBUQUERQUE
      AND OTHER STATIONS.  A FINAL VERSION WITH ADDITIONAL DATA IS
      ISSUED ABOUT 10 MINUTES AFTER THE HOUR.

NMZ501-503-504-510>518-220200-
NORTHWEST PLATEAU/NORTHCENTRAL MOUNTAINS

CITY           SKY/WX    TMP DP  RH WIND       PRES   REMARKS
FARMINGTON     FAIR      50   3  14 W15       30.21R
LOS ALAMOS     FAIR      48   4  16 W9        30.20R
SANTA FE       FAIR      49   5  16 NW3       30.17R
TAOS           FAIR      45   6  20 NW9       30.21
ANGEL FIRE     FAIR      39   9  28 W9        30.21R WCI  33

$$
NMZ402-403-502-505>509-220200-
WESTCENTRAL MOUNTAINS/SOUTHWEST MOUNTAINS

CITY           SKY/WX    TMP DP  RH WIND       PRES   REMARKS
GALLUP         FAIR      51  -3  10 NW7       30.26R
GRANTS         FAIR      47   7  20 NW8G20    30.25R
SILVER CITY    FAIR      63  31  30 W8        30.13R

$$
NMZ407-409-411-412-220200-
SOUTHERN DESERTS

CITY           SKY/WX    TMP DP  RH WIND       PRES   REMARKS
DEMING         FAIR      70  28  21 W9        30.07R
LAS CRUCES     FAIR      70  33  25 CALM      30.08R
HOLLOMAN AFB   FAIR      68  37  31 CALM      30.06R HAZE
ALAMOGORDO     FAIR      66  36  32 NE3       30.06R
T OR C         FAIR      70  21  15 N9        30.08R

$$
NMZ519>523-220200-
CENTRAL VALLEYS/CENTRAL HIGHLANDS

CITY           SKY/WX    TMP DP  RH WIND       PRES   REMARKS
ALBUQUERQUE    FAIR      59   4  11 N13       30.17R
DOUBLE EAGLE   PTCLDY    46   7  19 N7        30.19R
MORIARTY ARPT  FAIR      51  10  18 NW13      30.17R
CLINES CORNERS FAIR      46   5  18 NW18      30.18R
BELEN          FAIR      58   8  13 N12       30.15R
SOCORRO        FAIR      66  14  13 NW15G24   30.12R

$$
NMZ524>526-539-540-220200-
SOUTHCENTRAL MOUNTAINS

CITY           SKY/WX    TMP DP  RH WIND       PRES   REMARKS
RUIDOSO        FAIR      55  21  26 NW13G21   30.19R

$$
NMZ527>531-220200-
NORTHEAST HIGHLANDS/NORTHEAST PLAINS

CITY           SKY/WX    TMP DP  RH WIND       PRES   REMARKS
LAS VEGAS      FAIR      43  11  27 NW8       30.13R
RATON          FAIR      43  30  60 N5        30.12R
CLAYTON        FAIR      45  25  45 E7        30.08R

$$
NMZ532>537-220200-
EASTCENTRAL PLAINS

CITY           SKY/WX    TMP DP  RH WIND       PRES   REMARKS
SANTA ROSA     FAIR      55  35  47 N12       30.05R
TUCUMCARI      FAIR      56  35  45 NE15      30.01S
CANNON AFB     CLEAR     55  36  49 N13       30.06R
CLOVIS AIRPORT FAIR      53  37  54 N14       30.06R

$$
NMZ028-029-538-220200-
SOUTHEAST PLAINS

CITY           SKY/WX    TMP DP  RH WIND       PRES   REMARKS
ROSWELL        FAIR      68  35  29 W9        30.00R
ARTESIA        FAIR      66  39  37 NW9       30.00R
CARLSBAD       FAIR      66  44  45 W9        29.97R
HOBBS          FAIR      64  41  42 NW10      29.98R


$$




USA.gov is the U.S. government's official web portal to all federal, state and local government web resources and services.